Overview Statistics Trail Chart Weather Telemetry Raw packets
 

This is the latest recevied weather packets stored in our database for station/object DG1ROH. If no packets are shown the sender has not sent any weather packets the latest 10 day(s).

<< 206 207 208 209 210 211 212 >>
Time Temp. Humidity Pressure Rain* Wind** Luminosity Snow
1777118945 16.11° C 55% 1012 hPa 0 mm - 677 W/m² -
1777118825 16.11° C 56% 1012 hPa 0 mm - 668 W/m² -
1777118705 16.11° C 55% 1012.1 hPa 0 mm - 666 W/m² -
1777118586 16.11° C 53% 1012 hPa 0 mm - 670 W/m² -
1777118477 16.11° C 53% 1012 hPa 0 mm - 673 W/m² -
1777118342 16.11° C 55% 1012.1 hPa 0 mm - 675 W/m² -
1777118222 16.11° C 57% 1012 hPa 0 mm - 675 W/m² -
1777118102 15.56° C 58% 1012.1 hPa 0 mm - 679 W/m² -
1777117982 15.56° C 56% 1012.2 hPa 0 mm - 677 W/m² -
1777117863 15.56° C 57% 1012.1 hPa 0 mm - 677 W/m² -
1777117743 15.56° C 60% 1012.1 hPa 0 mm - 682 W/m² -
1777117622 15.56° C 58% 1012.1 hPa 0 mm - 679 W/m² -
1777117503 16.11° C 57% 1012.2 hPa 0 mm - 682 W/m² -
1777117382 16.11° C 58% 1012.3 hPa 0 mm - 680 W/m² -
1777117264 15.56° C 61% 1012.2 hPa 0 mm - 682 W/m² -
1777117143 15.56° C 56% 1012.2 hPa 0 mm - 687 W/m² -
1777117022 15.56° C 58% 1012.3 hPa 0 mm - 684 W/m² -
1777116902 15.56° C 59% 1012.3 hPa 0 mm - 687 W/m² -
1777116782 15° C 60% 1012.3 hPa 0 mm - 686 W/m² -
1777116664 15° C 58% 1012.3 hPa 0 mm - 684 W/m² -
1777116541 15.56° C 58% 1012.3 hPa 0 mm - 691 W/m² -
1777116422 15.56° C 57% 1012.4 hPa 0 mm - 691 W/m² -
1777116301 15.56° C 57% 1012.3 hPa 0 mm - 691 W/m² -
1777116181 15.56° C 59% 1012.4 hPa 0 mm - 686 W/m² -
1777116063 15.56° C 56% 1012.4 hPa 0 mm - 694 W/m² -

* Rain latest hour (hover to see other rain measurements)
** Current wind speed in m/s (hover to see current wind gust speed)